Tracking 25710 objects as of 5-Jul-2022
HD Live streaming from Space Station
objects crossing your sky now

FENGYUN 1C DEB

Track FENGYUN 1C DEB now!
10-day predictions


NORAD ID: 33668
Int'l Code: 1999-025DFD
Perigee: 526.3 km
Apogee: 764.7 km
Inclination: 99.0 °
Period: 97.5 minutes
Semi major axis: 7016 km
RCS: 0.0083 m2 (small)
Launch date: May 10, 1999
Source: People's Republic of China (PRC)
Launch site: Taiyaun Space Center, China (TSC)

Note: This is SATELLITE DEBRIS
aabbcc
Your satellite tracking list
Your tracking list is empty




NASA's NSSDC Master Catalog

Two Line Element Set (TLE):
1 33668U 99025DFD 22184.41926061  .00002108  00000-0  24370-3 0  9997
2 33668  99.0123  70.1042 0169846 261.4661  96.7267 14.77136712772648
Source of the keplerian elements: AFSPC